Regional Weather Roundup
Issued by NWS

Home | Current Version | Previous Version | Text Only | Print | Product List | Glossary Off
Versions: 1 2 3 4 5 6 7 8 9 10 11 12 13 14 15 16 17 18 19 20 21 22 23 24 25 26 27 28 29 30 31 32 33 34 35 36 37 38 39 40 41 42 43 44 45 46 47 48 49 50

000
ASUS43 KLMK 250102
RWRKY
KENTUCKY REGIONAL WEATHER ROUNDUP
NATIONAL WEATHER SERVICE LOUISVILLE KY
900 PM EDT THU JUL 24 2014

NOTE "FAIR" INDICATES FEW OR NO CLOUDS BELOW 12,000 FEET
WITH NO SIGNIFICANT WEATHER AND/OR OBSTRUCTIONS TO VISIBILITY.

KYZ001>023-026-027-061>063-070>075-250200-
WESTERN AND SOUTH CENTRAL KENTUCKY

CITY           SKY/WX    TMP DP  RH WIND       PRES   REMARKS
PADUCAH        CLEAR     74  59  59 NE5       30.02S
HENDERSON        N/A     72  55  56 NE5       30.02F VSB 1/2
OWENSBORO      PTCLDY    76  55  47 N6        30.03S
HOPKINSVILLE   CLEAR     73  56  54 N6        30.02R
BOWLING GREEN  CLEAR     76  53  44 NE5       30.01R
GLASGOW        CLEAR     72  55  53 CALM      30.02R
$$

KYZ024-025-028>034-038-045-046-053-250200-
NORTH CENTRAL KENTUCKY

CITY           SKY/WX    TMP DP  RH WIND       PRES   REMARKS
LOUISVILLE/SDF PTCLDY    74  53  48 N8        30.04R
LOUISVILLE/LOU CLEAR     73  53  49 N6        30.05R
FORT KNOX      MOCLDY    67  58  72 N6        30.04R
$$

KYZ035>037-039>044-047>052-055>060-089>105-250200-
NORTHEAST KENTUCKY

CITY           SKY/WX    TMP DP  RH WIND       PRES   REMARKS
LEXINGTON      PTCLDY    70  54  56 NE5       30.04R
COVINGTON      PTCLDY    71  54  54 NW8       30.05R
FRANKFORT      PTCLDY    72  54  53 N5        30.04R
$$

KYZ054-064>069-076>088-106>120-250200-
SOUTHEAST KENTUCKY

CITY           SKY/WX    TMP DP  RH WIND       PRES   REMARKS
JACKSON        CLEAR     66  61  84 CALM      30.04R
LONDON         CLEAR     68  61  78 CALM      30.05R
SOMERSET       CLEAR     68  61  77 CALM      30.04R
MIDDLESBORO    CLOUDY    67  63  85 CALM      30.02F
MONTICELLO     CLEAR     67  64  90 CALM      30.04R FOG
$$



USA.gov is the U.S. government's official web portal to all federal, state and local government web resources and services.